sat.trackr.live / text

‹ back to catalog

ZHONGXING-19

NORAD 54230 · 2022-148A

PAYLOAD ACTIVE UNKNOWN

§ Identity

Operator
Country
PRC
Launch date
2022-11-05
Launch site
XICLF
Launch vehicle
Mass (kg)
RCS (m²)

Purposes: comms

External: N2YO · Heavens-Above · Gunter

§ Orbital elements

Epoch: 2026-09-19T14:38:37.576896Z

Period
1,436.08 min
Inclination
0.0179°
Eccentricity
0.0004552
Mean motion
1.00272953 rev/d
Perigee alt
35,767.1 km
Apogee alt
35,805.5 km
Semi-major
42,164.4 km
B*
0.0000e+0
RAAN
169.6855°
Arg perigee
10.3391°
Mean anomaly
201.3353°
Rev number
1,432

§ Raw data

ZHONGXING-191 54230U 22148A   26262.61015714 -.00000085  00000+0  00000+0 0  99962 54230   0.0179 169.6855 0004552  10.3391 201.3353  1.00272953 14322

JSON: /api/v1/satellites/54230 · /tle

For live sub-satellite position, see the globe view (requires WebGL).

§ Visibility from observer

Set your observer location to see the next 7 days of passes ≥ 10°. The values pass through the URL so the page stays shareable.

No JS? Fill the form by hand. The geolocation button needs JavaScript.